Location: Koussan�
(15.2012°N, 12.5548°W)
Time: 01:18:01
(UTC+00:00)

Meteor 2-1 Rocket - Pass Details

Date: 20 October 2020
Orbit: 830 x 906 km, 81.3° (Epoch: 25 November)

Event Time Altitude Azimuth Distance (km) Brightness Sun altitude
Rises 19:53:45 0° 177° (S) 3,422 7.4 -21.6°
Reaches altitude 10° 19:56:13 10° 174° (S) 2,476 6.6 -22.2°
Maximum altitude 20:01:44 61° 94° (E) 947 4.1 -23.5°
Enters shadow 20:02:49 51° 47° (NE) 1,049 4.3 -23.8°
